Location name: Ngaru(Nyabarongo) | Identifier : 70008 | Type : Hydrology Station

Downstream the Nyabarongo and Mukungwa confluence the station consists of staff gauges and a radar installed on the bridge between Nyabihu and Muhanga districts. Both banks are stable and accessible.

  • Parameter : Stage
  • Unit : m
  • Start time : 2017-09-27T00:00:00.0000000+02:00
  • End time : 2018-12-11T00:00:00.0000000+02:00
  • Parameter : Stage
  • Unit : m
  • Start time : 1974-01-01T08:00:00.0000000+02:00
  • End time : 2010-09-20T00:00:00.0000000+02:00
  • Parameter : Stage
  • Unit : m
  • Start time : 2016-03-01T08:00:00.0000000+02:00
  • End time : 2017-03-31T17:00:00.0000000+02:00
  • Parameter : Stage
  • Unit : m
  • Start time : 2020-02-14T15:00:00.0000000+02:00
  • End time : 2021-03-15T19:30:00.0000000+02:00
  • Parameter : Stage
  • Unit : m
  • Start time : 2022-10-14T20:15:00.0000000+02:00
  • End time : 2022-11-21T22:30:00.0000000+02:00
  • Parameter : Voltage
  • Unit : V
  • Start time : 2022-10-14T21:00:00.0000000+02:00
  • End time : 2022-11-21T22:00:00.0000000+02:00
Date Parameter Unit Value
1960-01-01T00:00:00.0000000+02:00 Discharge m^3/s 55
1960-01-01T00:00:00.0000000+02:00 Stage m 0.920000017
1962-06-05T00:00:00.0000000+02:00 Discharge m^3/s 42
1962-06-05T00:00:00.0000000+02:00 Stage m 1.029999971
1964-08-10T00:00:00.0000000+02:00 Discharge m^3/s 33.5
1964-08-10T00:00:00.0000000+02:00 Stage m 0.790000021
1965-08-25T00:00:00.0000000+02:00 Discharge m^3/s 37.5
1965-08-25T00:00:00.0000000+02:00 Stage m 0.439999998
1970-09-13T00:00:00.0000000+02:00 Discharge m^3/s 78
1970-09-13T00:00:00.0000000+02:00 Stage m 1.360000014
1974-04-22T00:00:00.0000000+02:00 Discharge m^3/s 153
1974-04-22T00:00:00.0000000+02:00 Stage m 3.25999999
1974-05-29T00:00:00.0000000+02:00 Discharge m^3/s 158
1974-05-29T00:00:00.0000000+02:00 Stage m 3.355000019
1975-04-24T00:00:00.0000000+02:00 Discharge m^3/s 158.3999939
1975-04-24T00:00:00.0000000+02:00 Stage m 3.305000067
1975-08-13T00:00:00.0000000+02:00 Discharge m^3/s 46.79999924
1975-08-13T00:00:00.0000000+02:00 Stage m 0.889999986
1975-09-19T00:00:00.0000000+02:00 Discharge m^3/s 55.70000076
1975-09-19T00:00:00.0000000+02:00 Stage m 1.139999986
1975-10-23T00:00:00.0000000+02:00 Discharge m^3/s 120.6999969
1975-10-23T00:00:00.0000000+02:00 Stage m 2.644999981
1975-11-18T00:00:00.0000000+02:00 Discharge m^3/s 88.30000305
1975-11-18T00:00:00.0000000+02:00 Stage m 2.075000048
1976-01-15T00:00:00.0000000+02:00 Discharge m^3/s 74.5
1976-01-15T00:00:00.0000000+02:00 Stage m 1.504999995
1976-03-09T00:00:00.0000000+02:00 Discharge m^3/s 78
1976-03-09T00:00:00.0000000+02:00 Stage m 1.625
1976-04-23T00:00:00.0000000+02:00 Discharge m^3/s 128.6000061
1976-04-23T00:00:00.0000000+02:00 Stage m 2.644999981
1976-05-24T00:00:00.0000000+02:00 Discharge m^3/s 174.6999969
1976-05-24T00:00:00.0000000+02:00 Stage m 3.210000038
2017-08-22T00:00:00.0000000+02:00 Discharge m^3/s 42.96
2017-08-22T00:00:00.0000000+02:00 Stage m 0.64
2017-09-27T00:00:00.0000000+02:00 Discharge m^3/s 41.9
2017-09-27T00:00:00.0000000+02:00 Stage m 0.6
2017-11-21T00:00:00.0000000+02:00 Discharge m^3/s 58.316
2017-11-21T00:00:00.0000000+02:00 Stage m 0.73
2018-05-01T14:29:00.0000000+02:00 Discharge m^3/s 195.963
2018-05-01T14:29:00.0000000+02:00 Stage m 2.5
2018-08-29T09:08:00.0000000+02:00 Discharge m^3/s 70.4
2018-08-29T09:08:00.0000000+02:00 Stage m 1.15
2018-12-11T10:13:00.0000000+02:00 Discharge m^3/s 41
2018-12-11T10:13:00.0000000+02:00 Stage m 0.92
2019-06-04T09:08:00.0000000+02:00 Discharge m^3/s 48.21
2019-06-04T09:08:00.0000000+02:00 Stage m 0.84
2019-09-03T11:36:00.0000000+02:00 Discharge m^3/s 43.041
2019-09-03T11:36:00.0000000+02:00 Stage m 1.12
2020-10-21T09:34:08.6400000+02:00 Discharge m^3/s 121.92
2020-10-21T09:34:08.6400000+02:00 Stage m 1.9